Vorticity
9 9 10 3 1 2 4 4 4 7 5 4 4 5 7 7 5 5 7 7 7 7 8 8 7 7 8 8 7 7 8 10 12 9 7 8 8 8 9 9 11 11 10 9 9 9 7 8 7 9 11 11 12 9 9 10 9 11 9 7 8 7 8 9 7 4 4 4 8 9 6 5 7 8 7 7 7 6 5 6 5 5 5 6 6 5 6 8 7 6 6 6 7 8 8 7 4
12 11 8 5 4 5 6 4 4 6 4 3 5 8 9 7 5 5 6 6 5 5 7 6 6 7 8 9 6 5 5 7 11 10 10 9 8 9 9 8 8 6 6 6 5 5 6 8 8 9 8 9 11 8 8 9 9 9 7 9 10 9 9 9 6 3 5 3 4 5 6 8 8 7 6 6 6 5 5 4 4 5 6 7 6 6 7 7 6 6 6 6 7 7 8 6 4
11 9 7 6 8 8 7 6 4 3 4 7 8 9 8 6 6 5 4 5 5 4 7 6 5 5 7 7 3 3 4 7 8 5 7 7 6 7 6 6 6 5 5 5 5 6 7 8 8 8 9 9 9 9 10 11 10 9 9 11 10 7 7 8 6 6 8 6 4 4 6 7 7 6 6 5 5 5 5 5 5 6 6 6 7 7 7 7 6 6 5 6 6 7 8 7 5
9 9 7 6 6 6 6 7 7 4 4 9 9 9 7 6 7 4 5 8 7 5 5 5 5 4 6 8 4 3 3 5 8 3 1 4 6 6 6 6 5 6 6 6 5 7 8 8 7 6 7 7 7 9 10 10 9 9 9 9 8 6 4 5 5 5 4 4 4 5 6 6 6 7 6 5 5 5 5 5 7 7 6 5 6 7 7 7 6 5 4 5 6 8 8 7 5
8 7 7 6 3 3 5 6 9 4 2 9 9 8 7 5 7 5 6 8 7 5 3 6 7 7 9 8 6 8 4 3 12 9 2 5 8 7 5 5 6 7 6 6 5 6 7 7 7 7 6 6 7 7 7 7 6 6 4 2 3 4 4 4 4 4 3 4 5 6 7 6 5 6 6 6 5 6 6 7 8 6 5 5 5 7 7 7 6 4 3 5 7 8 8 7 5
6 5 8 10 4 4 5 3 10 7 2 12 11 7 7 4 6 5 5 6 5 7 6 8 7 8 11 10 12 14 7 3 9 11 6 6 7 6 5 5 7 6 6 6 6 6 6 6 6 7 8 7 7 7 7 6 6 6 4 2 4 5 4 4 4 4 4 5 5 7 8 6 6 7 6 6 5 6 7 6 6 5 5 6 6 7 8 7 5 4 4 6 7 8 8 7 4
5 4 8 9 4 6 7 5 8 6 2 10 9 4 6 6 7 6 5 6 6 7 8 8 6 8 10 8 13 12 7 7 6 7 8 6 6 6 5 5 5 4 6 7 6 6 5 5 5 6 7 7 7 7 7 7 7 7 6 7 8 6 4 5 4 4 5 6 6 8 8 7 7 6 5 5 5 6 6 4 5 6 6 7 8 8 8 7 5 4 5 6 7 8 7 6 4
7 5 10 9 2 4 8 9 5 2 4 8 6 3 8 8 7 8 6 6 6 7 8 8 8 12 11 10 15 13 10 11 7 7 7 7 7 6 5 5 6 5 7 7 6 5 4 5 6 6 6 6 5 5 6 7 7 6 7 7 7 6 7 9 8 7 7 8 9 9 8 8 7 5 5 6 6 7 7 5 5 6 6 7 9 9 9 7 5 5 6 6 7 8 7 6 5
9 1 15 16 2 3 2 2 2 2 7 7 5 3 7 7 6 10 6 5 7 7 8 6 6 9 10 12 15 14 11 10 9 8 8 9 9 7 5 7 7 7 8 8 6 5 5 5 5 6 6 6 5 5 6 5 4 5 5 5 5 5 7 10 12 11 10 9 10 8 7 8 7 5 6 7 6 7 7 6 5 5 6 7 9 9 9 7 6 5 6 7 8 8 7 7 5
9 -2 18 24 5 6 4 1 4 5 9 7 5 3 5 7 7 10 5 5 8 7 7 5 5 6 8 10 11 12 9 7 8 6 7 9 10 8 6 6 7 7 7 7 7 6 5 6 6 5 6 6 6 6 7 6 4 4 5 4 6 6 7 11 12 11 9 8 8 7 8 8 7 6 7 7 5 5 5 5 4 4 7 7 8 10 8 6 6 5 6 7 8 8 8 7 6
5 5 20 28 12 8 7 4 5 6 9 6 5 5 4 6 8 9 6 4 6 5 5 5 7 7 5 7 10 14 10 6 6 5 6 7 8 8 6 5 6 6 6 6 6 5 6 6 7 7 6 5 6 7 6 6 5 4 4 5 8 8 8 10 8 7 7 5 6 7 8 7 6 6 6 6 6 5 6 5 3 4 7 7 7 10 8 5 4 5 5 6 7 7 7 7 6
4 12 16 20 13 5 5 3 4 7 7 3 5 6 5 6 7 9 7 6 6 5 6 7 8 7 4 5 7 12 12 8 7 7 6 6 8 7 6 5 6 6 5 5 5 5 5 6 6 7 7 5 7 8 5 5 5 4 3 5 6 5 5 7 5 3 5 4 5 6 6 6 6 8 7 6 7 6 7 6 4 5 7 6 7 10 8 4 4 4 4 4 5 6 7 7 6
3 7 13 26 19 3 6 6 5 8 7 6 5 6 8 7 7 10 8 5 5 6 6 6 8 7 5 5 6 8 12 10 8 8 6 5 8 8 7 6 6 6 4 5 6 6 5 5 5 6 6 5 7 8 6 4 4 4 4 5 4 3 4 7 4 3 4 3 4 5 5 6 7 8 7 7 7 5 6 7 5 5 7 7 7 10 7 4 4 3 4 4 5 5 6 7 7
3 2 13 32 26 6 3 4 6 7 6 8 5 5 8 6 7 11 11 7 5 6 6 4 6 7 5 7 7 6 10 11 7 7 8 6 7 8 7 7 7 6 5 6 6 6 6 6 6 6 7 5 5 7 6 5 4 5 4 4 4 3 4 5 5 4 4 3 4 5 5 7 6 5 5 6 7 6 5 6 6 5 7 6 7 10 7 5 5 3 4 5 5 5 6 7 8
3 1 7 18 19 12 -0 -5 4 4 3 6 4 5 6 5 7 8 11 10 6 6 6 5 6 5 7 8 7 6 8 11 7 6 9 8 8 8 7 7 8 7 7 7 7 7 8 8 7 6 7 7 6 6 6 6 6 6 6 5 6 6 4 4 5 4 4 3 3 5 6 6 5 4 5 7 8 6 5 5 6 6 7 6 6 10 8 5 5 4 5 6 5 5 5 7 7
5 0 6 10 10 13 4 -2 6 2 1 6 4 6 5 4 6 7 10 9 6 8 6 4 6 7 7 9 8 6 7 11 7 6 10 9 7 7 7 7 8 8 7 6 6 6 7 8 8 7 8 8 8 7 6 6 6 6 6 7 7 7 6 6 6 6 5 3 3 6 6 5 5 6 7 8 7 6 6 5 5 5 6 6 6 10 9 6 5 5 5 6 6 6 5 6 8
9 2 4 9 5 5 5 3 6 1 3 7 7 10 6 4 4 5 10 8 8 12 7 3 6 9 4 6 11 7 6 9 8 10 12 9 7 5 5 6 7 7 6 7 6 6 8 6 6 7 8 9 8 9 8 7 7 7 7 8 8 7 7 7 6 7 6 4 5 8 7 6 7 9 9 9 7 6 5 4 5 6 7 5 6 10 9 7 5 5 5 6 6 6 6 6 7
2 4 2 6 4 3 5 3 3 2 2 2 9 16 4 0 6 6 7 6 8 10 9 6 5 9 6 4 10 9 5 7 9 12 11 6 6 5 5 6 6 7 7 8 8 7 7 6 6 5 6 7 7 8 9 8 8 7 7 7 8 7 8 7 6 6 6 5 6 7 8 8 7 9 10 9 7 6 5 4 4 5 7 5 6 10 8 6 5 4 5 6 7 6 7 7 7
-2 6 3 3 5 4 5 6 4 2 3 -1 5 15 3 -2 2 4 7 7 7 7 6 7 5 8 8 5 9 10 6 7 9 10 9 5 5 7 6 6 5 7 8 8 7 7 6 6 8 7 7 7 8 9 9 9 8 8 7 7 7 6 7 7 6 6 6 6 6 6 9 9 7 8 9 8 6 5 4 4 4 5 7 6 6 9 8 6 4 4 5 7 8 6 7 8 7
2 6 4 4 8 5 1 3 4 2 4 2 1 7 6 6 -1 -5 7 9 5 5 4 4 5 7 7 4 8 11 8 6 7 7 7 5 6 7 5 5 6 8 9 8 6 6 7 9 9 10 10 9 10 10 9 9 9 9 8 8 8 7 7 7 7 7 6 7 7 7 10 9 8 8 7 6 4 4 5 5 4 5 7 5 6 9 8 5 4 4 6 8 8 7 6 8 8
6 7 5 5 6 6 2 -1 3 3 2 2 2 2 3 10 1 -7 6 14 9 6 5 4 4 6 7 5 8 11 9 6 5 5 6 5 5 6 5 4 6 8 8 8 8 8 9 10 10 9 9 10 10 10 9 9 10 10 10 10 10 9 10 8 9 8 7 8 7 9 11 9 9 7 6 9 8 6 7 5 4 5 6 5 5 9 9 6 4 4 6 8 8 7 6 7 8
9 4 3 6 4 5 5 2 4 4 4 4 4 2 0 3 3 -1 4 14 16 6 4 7 5 6 8 5 7 11 8 5 5 7 6 5 7 6 6 6 6 8 8 10 11 10 11 11 10 8 9 11 11 11 10 9 9 11 13 11 10 11 12 12 11 9 9 9 7 9 10 8 7 5 9 15 12 9 7 5 5 6 6 5 6 9 9 5 3 4 7 8 6 6 7 9 9
10 -1 0 8 6 5 4 5 7 7 7 5 4 6 5 3 6 7 3 8 14 5 2 7 6 6 8 5 6 9 8 6 5 7 7 6 11 9 5 6 6 9 9 11 12 10 11 11 9 9 12 13 13 13 10 10 11 11 11 9 10 11 12 12 12 12 11 8 6 6 6 8 8 7 14 16 10 8 7 6 5 6 6 5 7 10 9 5 3 5 8 7 5 5 8 11 11
7 -1 6 11 7 6 3 2 7 8 6 4 5 8 7 6 6 7 7 8 11 7 4 7 7 6 8 6 7 7 6 9 6 4 6 6 10 8 5 6 7 9 10 9 9 8 9 9 9 11 13 13 13 12 11 11 12 13 12 12 14 13 12 13 15 16 13 10 6 4 8 10 9 10 14 13 9 8 7 6 5 6 6 5 7 10 10 6 3 7 9 6 6 7 9 11 11
10 1 8 10 4 5 2 1 7 8 5 4 5 7 7 7 6 6 8 10 11 8 7 7 6 6 7 6 7 7 5 8 7 4 5 6 9 9 6 6 7 9 10 8 8 8 9 9 10 11 11 13 12 11 14 13 11 14 11 12 17 13 10 13 15 15 16 17 9 5 9 7 7 11 12 12 11 10 7 5 6 6 5 7 8 11 12 7 4 8 8 6 7 10 11 10 9
10 -1 2 6 4 5 3 3 7 6 5 6 6 9 10 9 9 8 6 9 11 7 11 11 4 6 7 6 6 6 6 7 7 6 5 6 8 10 7 7 9 8 6 8 11 8 8 9 9 10 10 12 12 12 15 13 11 13 7 6 14 14 11 12 13 11 15 22 15 8 9 5 7 10 10 14 14 9 6 5 6 6 6 8 9 11 11 7 6 8 6 6 8 10 10 9 7
8 7 6 5 4 5 4 4 8 8 7 5 6 9 12 11 7 9 7 9 12 6 15 16 5 7 7 4 6 7 6 7 8 7 6 7 7 8 7 7 9 8 5 8 12 8 7 9 8 9 11 12 13 12 14 14 12 14 10 8 12 14 11 10 13 12 13 18 15 11 10 8 10 12 12 15 12 8 5 5 6 5 6 8 10 12 9 6 7 6 4 6 9 9 9 9 8
7 9 4 0 2 5 4 5 9 8 5 3 4 6 15 13 4 10 10 7 8 6 19 19 3 6 6 2 5 6 5 4 7 8 6 7 6 7 7 6 9 9 7 8 9 9 8 9 8 9 10 12 11 9 11 13 13 13 12 12 12 12 11 11 12 11 13 14 11 11 12 12 13 14 14 14 11 7 4 5 6 5 7 8 11 11 8 6 6 3 4 8 9 8 10 11 9
7 6 4 2 3 5 3 6 8 5 3 4 4 5 16 16 4 8 8 7 12 9 19 16 1 5 4 2 4 4 6 3 5 9 8 8 5 6 6 4 8 9 8 8 8 9 7 7 8 9 10 11 9 8 10 12 13 12 11 13 13 13 15 16 12 10 14 14 10 12 12 11 14 14 14 13 10 5 3 6 6 6 8 10 10 9 7 6 4 3 5 8 8 7 10 10 8
10 11 9 4 4 4 3 6 5 3 4 6 6 6 14 18 12 10 9 12 15 12 20 13 1 6 3 3 5 3 7 5 5 9 8 8 6 6 7 6 8 9 9 8 7 8 7 7 8 9 10 11 10 10 10 12 12 10 13 16 12 10 12 14 15 15 16 13 10 12 11 11 14 14 13 13 7 3 5 6 5 6 9 11 10 7 7 5 4 5 6 9 8 6 8 8 8
8 11 8 3 4 3 3 5 3 3 9 8 6 6 10 16 15 13 13 14 14 13 19 11 -0 6 4 4 7 4 7 6 5 7 7 9 8 7 7 7 8 9 10 8 7 8 8 7 8 9 10 10 11 10 10 12 10 9 11 12 8 7 10 12 18 19 15 13 11 10 11 12 13 13 12 9 5 4 6 6 5 8 11 11 9 7 7 5 5 6 6 9 9 6 8 7 7
4 7 8 4 3 0 0 7 6 4 7 5 5 6 3 12 20 18 16 16 19 19 16 9 3 4 5 6 7 5 5 6 5 7 7 8 8 7 6 6 8 10 11 8 7 8 8 8 7 9 10 10 9 9 10 11 9 10 10 6 6 10 11 12 19 20 13 10 11 11 12 12 12 11 9 6 5 7 6 5 7 9 10 11 9 6 5 5 6 7 7 9 9 7 9 9 7
3 5 8 6 3 1 1 7 9 4 4 3 5 6 1 22 39 21 13 17 18 18 10 5 5 3 6 7 6 6 4 5 5 6 8 8 5 5 6 6 6 8 9 8 7 8 9 9 8 9 10 9 8 8 10 10 9 11 10 7 9 12 11 10 15 22 17 10 10 10 11 12 13 11 7 6 6 6 6 7 9 10 10 9 7 4 4 5 5 6 9 11 11 7 8 11 8
3 2 10 10 3 1 1 6 8 3 9 8 4 8 3 32 56 16 -3 14 15 14 7 2 5 3 7 8 5 6 4 3 5 5 7 10 6 3 8 7 3 6 9 8 7 7 8 9 9 9 9 8 8 9 10 9 10 10 6 6 9 10 11 9 13 22 20 11 9 11 12 13 14 10 6 6 5 5 7 9 10 10 8 6 5 4 4 6 6 7 10 10 9 7 9 12 10
2 4 12 14 7 5 4 7 10 4 12 9 3 13 4 23 63 32 1 16 18 11 5 4 7 3 5 9 6 6 4 4 6 6 5 9 8 4 9 9 4 8 9 7 6 6 7 9 10 9 9 9 8 10 10 7 8 8 4 6 10 9 10 10 13 20 16 7 8 12 13 12 10 7 5 6 6 7 9 9 9 8 5 4 5 4 5 7 6 9 10 8 7 7 9 11 10
6 13 12 5 3 6 5 6 9 4 7 9 3 11 3 8 45 42 23 26 20 11 8 7 7 4 5 6 6 7 4 4 6 6 4 7 8 5 8 9 8 10 9 6 8 7 6 9 11 10 9 10 9 9 11 10 9 8 7 7 9 8 9 10 12 15 13 7 9 12 11 9 7 6 6 7 7 10 10 9 9 6 3 4 4 4 6 8 8 9 9 6 6 7 9 9 6
9 16 9 3 4 5 4 2 6 5 3 8 6 7 8 8 18 20 19 18 13 11 11 8 6 5 4 4 4 6 5 4 6 6 4 6 8 6 7 8 8 10 8 6 7 7 7 8 11 11 10 9 10 10 10 10 10 10 9 7 8 8 8 10 10 12 12 10 11 11 9 8 7 6 6 7 9 11 10 8 8 6 5 5 4 5 8 9 10 11 9 7 7 7 9 8 5
8 7 7 12 10 3 3 1 3 8 5 6 8 5 7 10 9 8 10 10 8 10 10 8 7 4 4 8 3 1 6 4 4 6 4 6 7 6 8 8 7 8 8 7 6 7 8 8 10 11 10 9 8 10 10 9 9 11 12 9 8 9 9 9 8 9 10 10 9 8 8 6 6 6 9 10 10 10 8 6 6 6 6 5 5 7 8 9 10 11 10 8 8 7 8 8 5
10 2 3 7 5 2 4 2 2 8 7 6 10 9 6 6 6 5 5 7 7 8 9 9 8 5 6 10 2 0 8 5 4 5 2 5 6 5 7 6 6 8 9 8 6 7 8 7 10 10 9 9 8 9 10 10 10 10 13 13 10 9 10 10 8 6 6 7 7 7 7 6 6 8 10 12 10 9 7 5 4 4 4 5 7 8 9 9 10 9 10 10 9 8 8 7 7
17 4 2 3 0 4 5 1 1 8 10 7 10 10 7 5 5 6 3 3 4 5 8 7 6 9 9 8 5 3 4 2 7 8 1 2 5 5 7 6 7 7 8 9 6 6 7 7 9 10 9 8 8 7 8 10 11 10 11 13 12 10 9 10 8 7 6 6 6 6 6 7 8 9 11 11 8 6 7 6 4 4 5 6 7 8 8 9 9 9 10 11 10 9 8 7 7
23 1 2 8 -1 -1 6 4 -2 5 9 9 13 9 4 3 1 6 6 4 4 3 7 8 7 9 7 6 6 2 5 7 8 13 10 1 -2 5 7 5 7 7 6 8 7 5 6 7 8 10 10 8 7 6 6 9 10 11 11 10 12 11 9 9 8 6 6 5 5 6 8 8 8 9 11 10 6 6 6 5 5 5 6 6 7 8 8 8 9 8 6 6 8 10 11 9 7
16 -1 3 8 2 -3 2 3 -3 3 5 4 14 11 3 4 2 4 8 7 7 6 9 13 12 10 7 8 7 1 10 13 1 6 16 1 -7 3 6 6 7 7 7 6 8 7 5 7 8 9 10 8 7 6 5 6 7 9 11 10 11 12 11 11 9 7 6 5 6 7 9 9 9 9 9 7 5 5 5 4 5 6 6 5 6 8 8 9 9 8 7 6 6 8 11 10 6
3 5 7 3 7 5 3 5 -2 1 6 4 11 9 2 5 4 3 4 5 7 5 6 10 11 14 9 4 8 5 6 9 -1 1 10 2 -4 1 2 7 8 6 8 7 6 8 6 5 6 8 10 8 7 6 6 6 5 6 9 10 11 12 12 11 10 9 8 7 7 8 10 11 10 8 6 6 6 4 3 4 5 5 6 6 6 6 7 9 10 8 9 9 8 7 8 9 8
-2 8 8 -0 6 5 3 4 -3 -3 6 7 9 6 1 1 5 7 5 5 8 5 4 3 7 24 25 7 6 10 3 3 4 5 6 3 5 6 0 3 9 6 6 7 7 7 7 6 5 6 9 9 8 6 6 6 5 5 6 8 10 11 12 11 10 9 9 9 9 10 11 10 10 7 5 6 7 5 4 5 6 7 8 7 5 6 7 8 9 8 8 8 9 8 6 6 8
-1 10 1 -4 8 12 4 -5 -1 8 8 5 6 6 2 -2 1 7 3 1 6 10 12 7 1 20 39 23 4 6 8 6 5 4 4 4 6 8 3 -1 3 7 5 5 7 6 6 7 5 6 7 9 10 7 7 6 5 5 5 5 6 7 10 11 12 11 10 11 11 12 11 9 8 6 6 7 7 7 6 6 7 8 9 7 5 6 6 7 7 8 8 7 8 8 6 6 7
2 9 -9 -8 8 15 15 8 6 5 1 4 5 2 1 -4 -3 4 4 2 3 5 12 12 3 6 25 32 16 3 4 7 6 4 3 5 5 5 11 7 -1 4 6 4 5 6 6 7 5 5 5 7 9 8 8 7 6 5 5 5 5 6 7 8 10 11 12 12 11 10 10 8 6 6 7 7 6 6 6 6 7 7 8 6 5 5 6 6 7 8 9 8 7 6 6 8 9
5 9 -8 -7 -1 -1 10 18 6 -7 3 18 15 9 10 5 -0 0 3 6 6 3 5 10 10 8 13 25 24 12 11 13 8 5 4 5 5 5 15 14 -1 -1 6 4 5 4 5 7 6 6 5 5 7 8 8 8 7 5 5 5 5 5 6 6 7 8 9 9 9 8 8 6 6 7 8 7 6 6 6 6 6 7 6 5 5 6 7 7 8 8 8 8 7 5 5 8 8
10 18 8 0 -1 -8 -9 -2 -1 1 13 17 14 16 20 20 15 4 -3 -2 4 6 5 4 5 9 11 12 13 13 23 29 14 1 3 6 4 6 16 15 3 1 3 2 5 5 4 6 6 6 6 5 5 6 8 8 7 6 6 5 5 5 5 5 5 6 7 7 7 7 7 6 6 6 6 6 6 6 6 6 6 6 5 5 6 7 8 8 8 8 7 6 6 5 5 6 6
12 20 22 16 11 -2 -11 -1 7 7 7 6 11 12 9 19 23 16 7 -1 0 4 2 4 3 4 7 7 8 6 15 31 21 -0 -1 5 4 8 13 11 6 5 4 2 4 4 4 6 6 6 7 6 5 4 5 7 7 7 6 5 5 5 5 5 5 5 5 6 6 6 5 6 5 5 5 5 5 5 6 7 6 6 6 6 8 8 9 9 9 8 7 6 6 6 5 5 5
21 21 22 26 28 23 20 21 9 -4 -2 4 12 10 3 10 16 19 21 9 3 3 -0 3 5 2 4 5 8 5 3 16 20 11 9 7 2 5 7 4 5 6 2 2 5 5 4 5 6 6 6 6 6 5 4 4 6 7 7 6 5 5 5 6 6 6 6 6 5 6 5 5 4 4 5 4 5 5 5 7 7 7 8 8 9 9 9 9 8 8 7 7 7 6 6 5 5
20 13 9 7 13 23 20 5 -10 -10 2 3 6 11 6 4 4 8 16 12 6 5 2 3 5 7 8 8 12 12 6 7 10 13 18 12 -1 0 6 4 5 5 0 1 5 6 5 5 6 6 6 6 6 7 6 4 4 5 6 6 6 6 5 5 6 6 7 7 7 7 6 6 6 5 5 5 6 6 6 7 6 7 8 8 9 9 8 9 8 7 7 7 7 6 7 7 6
7 0 4 -1 -2 6 0 -3 1 2 6 3 2 7 6 8 11 6 3 6 7 7 7 4 7 14 12 12 19 18 10 13 13 8 15 18 6 2 6 5 6 6 4 5 6 5 6 6 6 7 6 5 5 7 7 5 5 4 4 6 6 6 5 5 5 5 7 7 7 7 7 7 7 6 6 6 6 6 7 7 7 7 8 8 7 8 7 7 7 7 6 6 6 6 6 7 6
17 9 6 -3 -2 2 -6 4 15 7 4 4 0 1 2 8 18 14 3 3 6 10 14 8 7 16 14 9 17 17 10 15 17 12 19 26 15 7 9 7 6 6 5 7 6 6 9 8 6 7 7 6 6 7 7 7 7 5 4 4 4 6 6 5 5 4 6 7 6 7 7 6 6 7 7 7 6 6 6 7 7 7 7 7 6 7 7 7 7 7 7 7 6 6 6 6 7
23 14 2 -6 5 5 -9 0 10 7 6 1 0 6 6 5 9 8 4 5 7 9 13 8 2 11 16 11 9 8 6 7 8 9 20 29 19 10 10 5 4 6 5 7 7 7 10 8 6 5 5 6 6 6 6 7 9 9 7 5 4 5 5 5 6 5 4 6 6 7 7 6 6 6 6 7 7 7 6 6 7 7 6 6 6 7 7 7 7 8 8 8 8 8 8 8 8
17 10 2 -1 9 7 -4 3 11 11 7 -3 0 8 6 9 13 9 8 11 11 11 10 6 1 3 10 14 11 4 2 4 3 2 11 24 23 13 6 0 4 9 6 4 5 6 8 8 7 5 3 6 6 4 5 6 7 9 9 8 7 6 6 5 5 5 5 6 6 6 7 7 7 6 6 6 6 6 6 6 6 6 6 6 7 8 8 8 8 9 9 9 8 8 9 10 10
18 10 14 10 7 5 -2 3 14 19 13 3 5 8 5 8 10 8 8 6 8 14 15 10 7 5 4 11 16 13 7 4 3 2 4 13 21 20 14 6 5 8 8 7 3 3 7 8 7 6 4 4 4 3 5 5 4 5 6 8 9 8 7 7 6 6 6 5 5 6 6 6 7 7 7 7 7 7 6 6 6 6 6 6 6 7 7 7 8 8 9 9 8 7 8 10 9
10 -5 16 18 6 4 -5 -6 8 16 13 6 6 9 9 4 -3 -2 3 4 6 13 15 11 8 9 11 15 17 17 15 10 4 2 3 6 12 18 23 19 10 3 3 12 10 1 4 9 8 9 7 6 5 4 5 5 4 4 5 5 8 8 8 8 8 8 7 6 6 5 5 5 6 6 6 7 7 8 7 6 6 7 7 6 6 6 6 6 7 7 8 8 7 7 8 8 7
10 -10 7 12 4 7 3 -3 2 9 11 6 3 6 10 8 -3 -7 -2 5 7 7 8 9 7 8 13 14 12 13 15 15 12 8 5 8 10 12 14 14 14 6 -3 8 18 8 2 6 8 10 9 7 8 4 2 4 4 5 6 6 7 7 7 8 8 8 8 8 7 6 5 6 6 5 6 7 6 7 7 7 6 7 7 7 7 6 5 5 5 5 6 6 6 6 6 6 5
Height
5904 5903 5903 5902 5902 5902 5902 5901 5901 5900 5900 5900 5900 5899 5898 5897 5897 5897 5897 5897 5897 5897 5897 5897 5897 5896 5896 5895 5896 5896 5896 5896 5897 5896 5897 5897 5898 5898 5897 5897 5897 5897 5896 5896 5896 5896 5896 5897 5899 5900 5900 5899 5899 5899 5900 5901 5902 5903 5904 5905 5905 5906 5906 5907 5908 5908 5908 5908 5909 5910 5911 5912 5913 5913 5914 5914 5913 5913 5913 5913 5913 5913 5913 5913 5913 5913 5912 5912 5912 5912 5912 5912 5912 5911 5911 5911 5911
5905 5904 5904 5903 5902 5902 5902 5901 5901 5901 5901 5901 5900 5899 5898 5898 5897 5897 5897 5898 5898 5898 5898 5898 5897 5897 5897 5896 5896 5897 5897 5897 5898 5898 5897 5898 5898 5899 5899 5898 5897 5897 5897 5897 5897 5897 5897 5897 5899 5900 5900 5900 5899 5900 5901 5902 5903 5903 5904 5905 5906 5907 5907 5908 5909 5909 5909 5910 5910 5911 5911 5912 5913 5913 5913 5913 5913 5914 5914 5913 5913 5913 5913 5913 5913 5913 5913 5912 5912 5912 5912 5912 5912 5912 5912 5912 5912
5905 5905 5905 5904 5903 5903 5903 5902 5902 5902 5901 5901 5900 5899 5899 5898 5898 5898 5899 5899 5899 5899 5899 5898 5898 5898 5898 5898 5897 5898 5898 5899 5900 5899 5898 5898 5898 5899 5899 5899 5898 5898 5898 5898 5898 5898 5898 5898 5899 5900 5900 5900 5900 5900 5901 5902 5903 5904 5905 5906 5907 5908 5908 5909 5910 5910 5911 5911 5911 5911 5912 5912 5913 5913 5913 5914 5913 5914 5914 5914 5914 5913 5913 5913 5914 5914 5914 5913 5913 5913 5913 5913 5913 5913 5912 5912 5912
5905 5905 5905 5905 5904 5904 5904 5903 5903 5903 5902 5902 5901 5900 5899 5899 5899 5899 5900 5900 5900 5900 5899 5899 5899 5898 5899 5899 5898 5899 5899 5899 5900 5899 5898 5899 5899 5900 5900 5900 5899 5899 5899 5899 5899 5899 5899 5899 5900 5900 5900 5900 5900 5901 5902 5903 5904 5905 5906 5907 5908 5909 5909 5910 5911 5911 5912 5912 5912 5912 5912 5913 5913 5913 5913 5914 5914 5914 5914 5914 5914 5914 5913 5914 5914 5914 5914 5914 5914 5913 5913 5913 5913 5913 5913 5913 5913
5906 5906 5906 5905 5905 5904 5904 5904 5903 5903 5903 5903 5902 5901 5900 5899 5900 5901 5901 5901 5901 5901 5900 5900 5900 5900 5900 5899 5899 5899 5899 5899 5900 5899 5899 5900 5901 5900 5901 5901 5900 5900 5900 5900 5900 5900 5900 5900 5901 5901 5901 5901 5902 5903 5904 5904 5905 5906 5907 5907 5908 5909 5910 5911 5912 5912 5913 5913 5913 5913 5913 5913 5913 5913 5913 5914 5914 5914 5914 5915 5915 5915 5914 5915 5915 5915 5915 5915 5914 5914 5914 5914 5914 5913 5913 5913 5913
5907 5907 5907 5906 5905 5905 5904 5904 5904 5904 5904 5904 5902 5900 5900 5900 5901 5902 5902 5902 5902 5902 5901 5901 5901 5901 5900 5900 5900 5900 5900 5900 5900 5900 5899 5901 5902 5902 5902 5902 5902 5902 5901 5901 5901 5901 5901 5901 5902 5902 5902 5903 5903 5904 5905 5906 5906 5907 5908 5908 5909 5910 5911 5912 5912 5913 5913 5913 5914 5914 5914 5914 5914 5913 5913 5914 5914 5914 5915 5915 5916 5916 5915 5916 5916 5916 5916 5915 5915 5915 5915 5914 5914 5914 5914 5914 5914
5907 5907 5907 5906 5906 5905 5905 5905 5905 5905 5904 5904 5902 5900 5900 5901 5902 5903 5903 5903 5903 5903 5902 5902 5902 5902 5901 5901 5901 5901 5901 5901 5900 5901 5901 5902 5903 5903 5902 5902 5903 5903 5902 5902 5901 5902 5902 5902 5903 5903 5904 5904 5905 5906 5906 5907 5907 5908 5908 5909 5910 5910 5911 5912 5913 5913 5913 5913 5914 5915 5915 5915 5915 5914 5914 5914 5914 5914 5915 5915 5915 5916 5916 5916 5916 5917 5917 5917 5916 5916 5916 5915 5915 5914 5914 5914 5914
5907 5907 5907 5907 5907 5906 5906 5906 5906 5905 5904 5904 5902 5901 5901 5902 5903 5903 5903 5903 5903 5903 5903 5903 5902 5903 5902 5902 5902 5902 5902 5902 5901 5901 5902 5903 5903 5903 5903 5903 5903 5903 5903 5902 5902 5902 5903 5903 5904 5904 5905 5906 5907 5907 5907 5907 5908 5908 5909 5909 5910 5911 5911 5912 5913 5913 5913 5914 5915 5915 5916 5916 5916 5915 5915 5915 5915 5915 5915 5915 5915 5915 5916 5916 5917 5917 5918 5917 5917 5917 5916 5916 5915 5915 5915 5915 5915
5907 5908 5908 5907 5907 5907 5907 5906 5906 5905 5904 5904 5903 5902 5902 5902 5903 5904 5904 5904 5904 5904 5904 5903 5903 5903 5903 5903 5903 5903 5903 5903 5902 5902 5903 5903 5903 5904 5904 5904 5904 5904 5903 5903 5903 5903 5903 5904 5905 5905 5906 5906 5907 5908 5908 5908 5908 5909 5909 5910 5910 5911 5912 5913 5913 5913 5913 5914 5915 5915 5915 5916 5916 5916 5915 5915 5915 5915 5915 5915 5915 5915 5916 5916 5917 5918 5918 5918 5918 5918 5917 5916 5916 5916 5916 5915 5915
5909 5908 5907 5907 5907 5907 5907 5907 5906 5906 5905 5904 5904 5904 5903 5903 5904 5904 5904 5904 5905 5905 5905 5904 5904 5904 5904 5904 5904 5904 5904 5904 5903 5903 5903 5904 5904 5904 5904 5904 5904 5904 5904 5904 5903 5904 5904 5905 5905 5906 5906 5907 5907 5908 5908 5908 5909 5909 5909 5910 5910 5911 5912 5913 5913 5913 5914 5914 5915 5915 5915 5916 5916 5916 5916 5916 5915 5915 5915 5915 5915 5916 5916 5917 5917 5918 5918 5919 5918 5918 5917 5917 5917 5916 5916 5916 5916
5910 5908 5907 5906 5906 5907 5907 5908 5907 5907 5906 5905 5905 5905 5904 5904 5905 5905 5905 5905 5905 5905 5906 5905 5905 5905 5905 5905 5905 5906 5906 5905 5904 5904 5904 5905 5905 5905 5905 5905 5905 5905 5905 5905 5904 5905 5905 5906 5906 5906 5907 5907 5907 5908 5908 5909 5909 5909 5910 5910 5911 5911 5912 5913 5913 5914 5914 5915 5915 5915 5915 5916 5916 5916 5916 5916 5916 5915 5915 5916 5916 5916 5917 5917 5917 5918 5919 5919 5919 5919 5918 5917 5917 5917 5917 5917 5917
5910 5909 5908 5907 5907 5907 5908 5908 5907 5907 5907 5906 5906 5905 5905 5905 5905 5906 5906 5906 5906 5906 5906 5906 5905 5905 5905 5906 5906 5907 5907 5906 5905 5905 5905 5905 5905 5905 5906 5906 5906 5905 5905 5905 5905 5905 5906 5906 5907 5907 5907 5907 5908 5908 5908 5908 5909 5909 5910 5910 5911 5911 5912 5912 5913 5914 5914 5915 5915 5915 5915 5915 5916 5916 5917 5916 5916 5915 5915 5916 5916 5917 5917 5918 5918 5919 5919 5920 5919 5919 5919 5918 5918 5918 5918 5918 5918
5910 5909 5908 5907 5907 5908 5908 5909 5908 5908 5908 5907 5907 5906 5906 5906 5906 5907 5906 5906 5906 5906 5906 5906 5906 5905 5905 5906 5907 5907 5907 5907 5906 5906 5905 5905 5905 5905 5905 5905 5905 5905 5905 5905 5906 5906 5906 5906 5907 5907 5908 5908 5908 5908 5908 5908 5909 5910 5910 5910 5911 5911 5912 5912 5913 5913 5914 5915 5915 5915 5915 5916 5916 5916 5916 5916 5916 5916 5915 5916 5916 5917 5917 5918 5919 5919 5920 5920 5920 5920 5919 5919 5919 5919 5919 5919 5919
5911 5910 5908 5907 5907 5908 5909 5909 5909 5909 5908 5907 5907 5906 5907 5906 5906 5907 5907 5907 5907 5907 5907 5907 5906 5906 5905 5905 5906 5907 5908 5908 5907 5906 5906 5905 5905 5905 5905 5905 5905 5906 5906 5906 5906 5906 5906 5907 5907 5908 5908 5908 5909 5909 5909 5909 5910 5910 5911 5911 5911 5911 5912 5912 5912 5913 5914 5915 5915 5915 5916 5916 5916 5916 5916 5916 5917 5916 5916 5915 5916 5917 5918 5919 5920 5920 5920 5921 5921 5920 5920 5920 5919 5919 5919 5920 5920
5911 5910 5909 5908 5908 5908 5909 5909 5909 5909 5908 5908 5907 5907 5906 5906 5906 5906 5907 5908 5907 5907 5907 5907 5907 5907 5906 5906 5905 5906 5908 5908 5908 5907 5907 5906 5906 5906 5906 5905 5906 5906 5906 5906 5906 5907 5907 5907 5908 5908 5909 5909 5909 5909 5909 5910 5910 5911 5911 5911 5911 5911 5911 5912 5912 5913 5913 5914 5915 5916 5916 5916 5916 5916 5916 5916 5916 5916 5916 5916 5917 5918 5919 5919 5920 5920 5921 5921 5921 5921 5920 5920 5920 5920 5920 5920 5920
5911 5910 5910 5909 5909 5909 5909 5909 5909 5909 5908 5908 5907 5907 5907 5906 5906 5906 5907 5908 5907 5907 5906 5906 5906 5907 5907 5907 5906 5906 5907 5908 5908 5908 5907 5907 5906 5906 5906 5906 5906 5906 5906 5907 5907 5907 5907 5908 5908 5908 5909 5909 5909 5909 5910 5910 5910 5910 5910 5911 5911 5911 5911 5912 5912 5912 5913 5914 5915 5915 5916 5916 5916 5916 5916 5916 5916 5916 5916 5916 5917 5918 5919 5919 5920 5921 5921 5922 5921 5921 5921 5921 5921 5921 5921 5921 5921
5910 5910 5910 5910 5910 5909 5909 5909 5909 5909 5908 5908 5907 5907 5907 5906 5906 5906 5907 5907 5907 5907 5907 5906 5906 5907 5907 5908 5908 5907 5907 5908 5908 5908 5908 5907 5907 5906 5906 5907 5907 5907 5907 5907 5907 5907 5907 5907 5908 5908 5909 5909 5909 5909 5909 5910 5910 5910 5910 5910 5910 5910 5910 5911 5911 5912 5913 5913 5914 5915 5915 5916 5916 5916 5916 5916 5916 5916 5916 5917 5917 5918 5919 5919 5920 5921 5922 5922 5922 5921 5921 5921 5921 5922 5921 5921 5921
5910 5910 5910 5910 5910 5910 5909 5909 5909 5909 5909 5908 5908 5907 5907 5906 5906 5906 5906 5907 5907 5908 5907 5906 5906 5906 5907 5908 5909 5908 5907 5908 5908 5908 5908 5908 5907 5907 5907 5907 5907 5907 5907 5907 5907 5907 5907 5907 5907 5908 5908 5908 5908 5908 5909 5909 5909 5909 5909 5909 5909 5909 5910 5910 5911 5911 5912 5913 5913 5914 5915 5915 5916 5916 5916 5916 5916 5916 5916 5917 5917 5918 5919 5920 5921 5921 5922 5922 5922 5922 5922 5922 5922 5922 5922 5922 5922
5909 5910 5910 5911 5911 5910 5910 5910 5910 5909 5909 5908 5908 5908 5907 5907 5907 5906 5906 5906 5907 5907 5906 5906 5906 5906 5906 5907 5909 5909 5907 5907 5908 5908 5908 5908 5907 5907 5907 5908 5908 5908 5907 5907 5907 5907 5907 5907 5907 5907 5907 5907 5907 5908 5908 5908 5907 5908 5908 5908 5908 5909 5909 5910 5910 5911 5912 5912 5913 5913 5914 5915 5915 5916 5916 5916 5916 5917 5917 5917 5918 5919 5920 5920 5921 5921 5921 5922 5923 5923 5923 5923 5923 5923 5923 5923 5923
5909 5910 5910 5911 5911 5910 5910 5910 5910 5909 5909 5909 5909 5908 5908 5908 5908 5907 5907 5906 5906 5906 5906 5905 5905 5905 5905 5906 5908 5909 5908 5907 5907 5908 5908 5907 5907 5907 5907 5907 5907 5907 5907 5907 5907 5907 5906 5906 5906 5907 5907 5907 5907 5907 5907 5906 5906 5906 5907 5907 5908 5908 5908 5909 5910 5910 5911 5912 5912 5913 5913 5914 5915 5915 5916 5916 5917 5917 5917 5918 5919 5919 5920 5920 5921 5921 5922 5923 5923 5923 5924 5924 5924 5924 5924 5923 5923
5909 5909 5910 5910 5909 5909 5909 5909 5909 5909 5909 5909 5909 5908 5908 5908 5908 5908 5908 5907 5906 5906 5906 5906 5905 5905 5906 5906 5907 5908 5908 5908 5907 5907 5907 5906 5907 5907 5906 5907 5907 5907 5907 5907 5907 5906 5906 5906 5906 5906 5906 5906 5906 5906 5906 5905 5905 5905 5906 5906 5907 5907 5907 5908 5909 5909 5910 5911 5912 5912 5912 5913 5914 5914 5915 5915 5916 5917 5917 5918 5919 5920 5920 5921 5921 5922 5922 5923 5924 5924 5924 5924 5925 5925 5924 5924 5924
5908 5909 5909 5909 5908 5909 5910 5909 5909 5909 5909 5908 5908 5908 5908 5908 5908 5908 5908 5908 5907 5906 5906 5906 5906 5906 5906 5906 5906 5907 5908 5908 5908 5908 5907 5906 5907 5907 5906 5907 5907 5907 5907 5907 5907 5907 5906 5906 5906 5906 5906 5906 5906 5905 5905 5904 5904 5905 5905 5905 5906 5906 5906 5907 5907 5908 5909 5910 5910 5911 5911 5912 5912 5913 5914 5915 5916 5916 5917 5919 5919 5920 5921 5921 5922 5922 5923 5924 5924 5925 5925 5925 5925 5925 5925 5925 5925
5907 5909 5908 5907 5908 5909 5909 5908 5908 5908 5909 5908 5907 5908 5908 5908 5907 5907 5906 5907 5907 5906 5906 5905 5906 5906 5906 5906 5906 5906 5907 5908 5908 5909 5908 5907 5908 5907 5907 5907 5908 5908 5908 5908 5908 5907 5907 5906 5906 5905 5905 5905 5905 5904 5904 5903 5903 5904 5904 5904 5905 5905 5905 5905 5906 5907 5907 5908 5909 5910 5911 5911 5912 5913 5913 5914 5915 5917 5918 5919 5920 5921 5921 5922 5923 5924 5924 5924 5925 5926 5926 5926 5926 5926 5926 5926 5926
5906 5908 5907 5907 5907 5908 5908 5907 5908 5908 5908 5907 5907 5907 5907 5907 5906 5906 5905 5906 5907 5906 5905 5905 5905 5905 5905 5905 5906 5906 5906 5907 5907 5908 5908 5907 5908 5908 5907 5907 5908 5908 5908 5908 5908 5907 5906 5906 5905 5905 5905 5905 5904 5903 5903 5903 5903 5903 5904 5904 5904 5904 5904 5904 5905 5905 5906 5907 5908 5909 5910 5910 5911 5912 5913 5914 5915 5917 5919 5920 5920 5921 5922 5923 5924 5924 5925 5925 5926 5926 5927 5927 5927 5926 5926 5927 5927
5905 5906 5906 5906 5906 5907 5907 5907 5908 5908 5908 5907 5907 5906 5906 5906 5905 5905 5904 5905 5906 5906 5905 5904 5905 5905 5905 5905 5906 5906 5906 5907 5907 5908 5907 5907 5908 5908 5907 5907 5908 5908 5908 5908 5907 5906 5906 5905 5905 5905 5905 5904 5904 5903 5903 5903 5903 5903 5903 5903 5903 5903 5903 5903 5904 5904 5905 5905 5906 5908 5909 5910 5911 5912 5913 5914 5915 5918 5920 5920 5921 5922 5923 5924 5924 5925 5926 5927 5927 5927 5927 5927 5927 5927 5927 5928 5928
5904 5905 5905 5905 5906 5907 5906 5907 5908 5908 5907 5906 5906 5905 5904 5904 5904 5904 5903 5904 5904 5905 5904 5904 5904 5905 5905 5905 5906 5906 5906 5907 5907 5908 5907 5907 5908 5908 5908 5908 5908 5907 5907 5908 5907 5907 5906 5905 5905 5905 5905 5904 5904 5903 5902 5902 5902 5903 5903 5903 5903 5903 5903 5903 5904 5904 5904 5905 5906 5907 5908 5909 5911 5912 5913 5914 5916 5918 5920 5921 5922 5923 5924 5925 5925 5926 5927 5928 5928 5927 5928 5928 5928 5928 5928 5929 5929
5903 5904 5904 5904 5906 5906 5906 5907 5907 5907 5906 5905 5905 5904 5903 5903 5902 5902 5902 5903 5903 5904 5904 5904 5904 5905 5905 5905 5905 5906 5906 5906 5908 5908 5907 5906 5907 5908 5907 5908 5908 5907 5908 5908 5907 5907 5906 5906 5905 5905 5905 5904 5903 5903 5902 5902 5902 5902 5903 5903 5902 5903 5903 5903 5903 5904 5904 5905 5906 5907 5908 5909 5910 5912 5913 5915 5917 5918 5920 5921 5922 5923 5924 5925 5926 5927 5928 5928 5928 5927 5928 5928 5928 5928 5928 5929 5930
5901 5903 5903 5903 5905 5905 5905 5906 5906 5906 5906 5905 5904 5903 5902 5901 5901 5901 5902 5902 5902 5903 5903 5903 5904 5904 5904 5905 5905 5906 5906 5906 5908 5908 5907 5905 5906 5906 5906 5907 5908 5908 5908 5908 5907 5907 5907 5906 5905 5905 5905 5904 5903 5903 5903 5902 5902 5903 5903 5903 5903 5903 5903 5903 5903 5904 5904 5905 5906 5907 5908 5909 5911 5912 5914 5915 5917 5918 5920 5921 5923 5924 5924 5926 5927 5928 5928 5928 5927 5927 5928 5928 5928 5929 5929 5930 5930
5900 5902 5902 5903 5904 5904 5904 5905 5905 5905 5905 5904 5903 5902 5901 5900 5899 5900 5901 5900 5901 5902 5901 5902 5903 5904 5904 5905 5905 5906 5906 5906 5907 5907 5907 5905 5905 5905 5906 5906 5908 5908 5908 5908 5907 5907 5906 5906 5906 5906 5905 5904 5904 5903 5903 5903 5903 5903 5903 5903 5903 5903 5903 5903 5904 5904 5904 5905 5906 5907 5909 5910 5912 5913 5914 5916 5917 5918 5920 5922 5923 5924 5925 5926 5927 5928 5928 5928 5927 5928 5928 5928 5928 5929 5929 5930 5930
5900 5900 5901 5902 5903 5903 5903 5904 5904 5904 5904 5903 5902 5900 5899 5898 5898 5898 5899 5899 5900 5900 5900 5901 5902 5903 5904 5905 5905 5906 5906 5906 5906 5907 5907 5906 5905 5905 5906 5907 5907 5908 5908 5908 5907 5907 5906 5906 5906 5906 5906 5905 5904 5904 5904 5904 5903 5904 5904 5904 5904 5904 5904 5904 5904 5904 5904 5905 5906 5908 5909 5911 5912 5914 5915 5916 5917 5919 5921 5923 5924 5925 5926 5927 5927 5928 5928 5928 5928 5928 5928 5928 5929 5929 5929 5930 5931
5899 5899 5900 5902 5903 5903 5903 5903 5904 5903 5903 5902 5901 5899 5898 5897 5896 5897 5897 5898 5898 5899 5900 5901 5901 5902 5903 5904 5905 5905 5905 5905 5905 5906 5907 5907 5907 5906 5907 5907 5907 5908 5908 5908 5907 5907 5907 5906 5906 5906 5906 5906 5905 5905 5905 5905 5904 5904 5905 5905 5905 5905 5905 5905 5905 5904 5905 5906 5907 5908 5910 5912 5913 5914 5915 5916 5918 5920 5922 5923 5924 5925 5927 5927 5928 5928 5928 5928 5929 5929 5929 5929 5929 5930 5930 5930 5931
5898 5899 5899 5901 5902 5902 5902 5903 5903 5902 5902 5901 5900 5899 5897 5894 5893 5894 5895 5896 5897 5898 5899 5900 5901 5902 5903 5904 5904 5905 5905 5905 5905 5906 5907 5907 5907 5907 5906 5907 5907 5908 5908 5908 5908 5908 5907 5906 5906 5906 5906 5906 5906 5906 5906 5906 5905 5905 5905 5906 5906 5906 5906 5905 5905 5905 5906 5907 5908 5909 5911 5912 5913 5914 5915 5917 5919 5921 5922 5924 5925 5926 5927 5928 5928 5928 5928 5929 5929 5929 5929 5929 5930 5930 5931 5931 5932
5897 5899 5899 5900 5900 5900 5901 5901 5901 5901 5901 5900 5899 5897 5895 5892 5891 5893 5894 5895 5896 5897 5898 5900 5900 5901 5902 5903 5904 5904 5905 5905 5905 5906 5906 5907 5907 5907 5907 5907 5907 5908 5908 5908 5908 5908 5908 5907 5906 5906 5906 5906 5906 5906 5907 5907 5906 5906 5906 5907 5907 5907 5906 5906 5906 5907 5907 5908 5909 5910 5912 5913 5914 5915 5916 5918 5920 5922 5923 5924 5925 5926 5927 5928 5928 5929 5929 5929 5929 5930 5930 5930 5931 5931 5931 5932 5932
5895 5897 5899 5899 5899 5899 5900 5900 5900 5900 5900 5899 5898 5896 5894 5891 5890 5892 5893 5894 5896 5897 5898 5899 5900 5901 5902 5902 5903 5904 5905 5905 5905 5906 5906 5907 5907 5907 5908 5907 5907 5907 5908 5908 5908 5908 5908 5908 5907 5906 5906 5906 5906 5907 5907 5907 5907 5907 5907 5907 5908 5907 5907 5908 5908 5908 5908 5910 5911 5912 5913 5914 5915 5917 5918 5920 5922 5923 5924 5924 5925 5927 5928 5929 5929 5929 5929 5929 5930 5930 5930 5930 5931 5931 5931 5932 5933
5894 5895 5897 5898 5898 5898 5899 5898 5898 5899 5898 5898 5897 5896 5894 5891 5889 5890 5892 5893 5895 5896 5898 5899 5900 5901 5902 5902 5903 5904 5904 5905 5905 5906 5906 5907 5907 5908 5908 5908 5907 5908 5908 5909 5908 5908 5908 5908 5908 5907 5906 5907 5907 5907 5908 5908 5907 5907 5908 5908 5908 5908 5908 5909 5909 5909 5910 5911 5912 5913 5914 5915 5917 5919 5920 5921 5922 5923 5924 5924 5925 5927 5929 5929 5929 5929 5929 5929 5930 5930 5931 5930 5931 5932 5932 5932 5933
5893 5894 5895 5896 5897 5898 5898 5897 5897 5897 5897 5897 5896 5895 5894 5893 5891 5891 5893 5894 5895 5897 5898 5899 5900 5901 5901 5902 5902 5903 5904 5904 5905 5905 5906 5907 5908 5908 5908 5908 5908 5908 5908 5909 5909 5909 5909 5909 5909 5908 5907 5907 5907 5908 5908 5909 5909 5909 5909 5909 5909 5909 5910 5910 5910 5910 5911 5912 5913 5914 5915 5917 5918 5920 5921 5922 5923 5924 5924 5924 5925 5928 5929 5929 5929 5929 5929 5930 5930 5931 5931 5931 5931 5932 5932 5933 5934
5891 5892 5893 5895 5896 5897 5896 5895 5895 5896 5897 5896 5896 5895 5894 5894 5893 5894 5895 5896 5897 5898 5898 5899 5900 5901 5901 5902 5902 5903 5903 5904 5905 5905 5906 5907 5908 5909 5909 5909 5908 5908 5909 5909 5909 5909 5909 5910 5909 5909 5909 5908 5908 5908 5909 5910 5910 5910 5910 5910 5910 5911 5911 5911 5911 5912 5913 5914 5914 5915 5917 5918 5919 5920 5921 5922 5923 5925 5925 5924 5926 5928 5929 5929 5929 5929 5930 5930 5931 5931 5931 5931 5931 5932 5932 5933 5934
5890 5890 5891 5893 5895 5895 5895 5894 5894 5895 5896 5896 5895 5895 5895 5895 5895 5895 5896 5897 5898 5898 5899 5899 5900 5902 5902 5902 5903 5903 5903 5904 5904 5905 5905 5906 5907 5909 5909 5909 5909 5909 5909 5909 5909 5909 5910 5910 5910 5910 5909 5909 5908 5909 5909 5910 5911 5911 5911 5911 5912 5912 5912 5913 5913 5914 5914 5915 5916 5917 5918 5920 5921 5921 5922 5923 5924 5925 5925 5926 5927 5928 5929 5929 5929 5930 5930 5930 5931 5931 5931 5931 5932 5932 5933 5933 5933
5887 5889 5890 5892 5894 5894 5893 5893 5894 5894 5894 5895 5895 5895 5895 5895 5895 5896 5896 5897 5898 5899 5900 5900 5901 5902 5903 5903 5903 5903 5904 5904 5904 5904 5905 5905 5906 5907 5908 5909 5909 5909 5909 5908 5909 5909 5910 5910 5910 5910 5910 5910 5909 5909 5910 5911 5911 5912 5913 5913 5913 5913 5914 5914 5915 5915 5916 5917 5917 5919 5920 5921 5922 5922 5923 5924 5924 5925 5926 5927 5928 5929 5929 5930 5930 5930 5931 5931 5931 5931 5931 5931 5932 5932 5932 5933 5933
5886 5888 5890 5891 5893 5893 5892 5893 5893 5893 5893 5894 5894 5894 5894 5895 5895 5896 5897 5898 5898 5899 5900 5900 5901 5902 5903 5902 5902 5903 5904 5906 5906 5905 5905 5904 5905 5906 5907 5908 5909 5908 5908 5908 5909 5909 5910 5910 5910 5911 5911 5911 5910 5910 5910 5911 5912 5912 5913 5914 5914 5914 5915 5915 5916 5917 5918 5918 5919 5920 5921 5922 5923 5923 5924 5925 5925 5925 5926 5928 5929 5930 5930 5930 5930 5930 5931 5931 5931 5931 5931 5931 5932 5933 5933 5933 5933
5888 5889 5889 5890 5891 5890 5891 5892 5893 5893 5892 5893 5894 5894 5894 5895 5895 5896 5897 5898 5898 5899 5899 5900 5901 5902 5902 5902 5903 5903 5903 5905 5906 5906 5907 5906 5905 5906 5907 5908 5908 5908 5908 5908 5909 5909 5910 5910 5910 5910 5911 5911 5912 5911 5911 5911 5912 5912 5913 5914 5915 5915 5915 5916 5916 5917 5918 5919 5920 5920 5921 5922 5923 5924 5925 5925 5926 5926 5928 5929 5930 5930 5930 5930 5930 5931 5931 5931 5931 5931 5931 5932 5932 5933 5933 5934 5934
5888 5888 5888 5887 5888 5888 5889 5891 5892 5892 5891 5892 5893 5893 5894 5894 5895 5896 5896 5897 5898 5899 5899 5900 5900 5901 5902 5902 5903 5903 5903 5904 5905 5906 5907 5907 5907 5906 5906 5907 5908 5908 5908 5909 5909 5909 5910 5910 5910 5911 5911 5911 5912 5912 5912 5912 5912 5913 5913 5914 5915 5916 5916 5916 5917 5918 5918 5919 5920 5921 5921 5922 5924 5925 5925 5926 5926 5928 5929 5930 5930 5930 5930 5931 5931 5931 5931 5931 5931 5931 5932 5932 5933 5933 5934 5934 5934
5886 5886 5886 5885 5885 5887 5888 5890 5891 5891 5891 5891 5892 5893 5894 5894 5895 5895 5896 5896 5897 5898 5899 5899 5900 5901 5901 5902 5902 5902 5903 5903 5904 5905 5905 5906 5908 5908 5907 5907 5908 5908 5908 5908 5909 5909 5909 5910 5911 5911 5911 5912 5912 5913 5912 5912 5912 5913 5913 5914 5915 5916 5916 5916 5917 5918 5918 5919 5920 5921 5922 5923 5924 5925 5926 5926 5928 5929 5930 5930 5930 5930 5930 5931 5931 5931 5931 5931 5931 5931 5932 5932 5933 5933 5934 5934 5934
5883 5884 5885 5884 5884 5885 5887 5888 5889 5889 5890 5891 5891 5892 5893 5894 5894 5895 5896 5897 5897 5897 5897 5898 5898 5899 5899 5900 5901 5901 5902 5902 5902 5903 5905 5905 5906 5907 5907 5906 5907 5908 5908 5908 5908 5908 5908 5909 5910 5911 5912 5912 5913 5913 5913 5913 5913 5913 5913 5914 5915 5915 5916 5916 5917 5917 5918 5919 5920 5921 5922 5923 5924 5925 5926 5927 5928 5929 5930 5930 5930 5930 5931 5931 5931 5931 5931 5931 5931 5931 5932 5932 5933 5933 5933 5934 5935
5880 5882 5883 5883 5882 5884 5885 5886 5887 5887 5889 5891 5892 5892 5893 5894 5894 5895 5896 5897 5897 5896 5896 5896 5896 5896 5896 5898 5899 5900 5900 5901 5901 5902 5904 5905 5905 5906 5906 5906 5906 5907 5907 5907 5908 5908 5908 5909 5909 5910 5911 5912 5913 5914 5914 5914 5914 5913 5913 5914 5914 5915 5916 5916 5917 5918 5918 5919 5920 5921 5922 5923 5924 5925 5926 5928 5929 5929 5930 5930 5930 5930 5931 5931 5931 5931 5931 5931 5931 5932 5932 5932 5933 5933 5934 5934 5935
5877 5880 5882 5882 5882 5883 5884 5885 5885 5886 5888 5890 5891 5892 5893 5894 5895 5895 5896 5896 5896 5896 5895 5895 5895 5895 5895 5895 5897 5898 5899 5900 5901 5901 5902 5904 5904 5905 5905 5906 5906 5905 5906 5906 5907 5908 5908 5908 5908 5909 5910 5912 5913 5913 5914 5915 5915 5915 5915 5915 5915 5916 5916 5917 5918 5919 5919 5920 5920 5921 5922 5923 5925 5926 5927 5928 5928 5929 5929 5929 5930 5930 5930 5931 5931 5931 5931 5931 5931 5932 5932 5933 5933 5933 5933 5934 5934
5877 5880 5881 5882 5883 5884 5884 5885 5885 5885 5887 5889 5889 5890 5891 5892 5893 5894 5894 5894 5894 5895 5895 5894 5894 5894 5894 5894 5895 5896 5897 5898 5899 5900 5901 5902 5903 5903 5905 5906 5906 5906 5904 5905 5907 5908 5908 5908 5908 5908 5909 5910 5912 5913 5914 5915 5915 5915 5916 5916 5916 5916 5917 5918 5919 5920 5920 5921 5921 5922 5923 5924 5925 5926 5927 5927 5928 5928 5928 5929 5929 5929 5930 5930 5931 5931 5931 5931 5931 5931 5932 5932 5933 5933 5933 5933 5934
5876 5880 5881 5882 5883 5884 5885 5885 5886 5887 5888 5887 5887 5888 5888 5889 5890 5891 5892 5892 5893 5893 5893 5893 5892 5892 5892 5893 5894 5894 5894 5895 5896 5898 5900 5901 5901 5902 5903 5904 5906 5907 5905 5904 5905 5907 5907 5908 5908 5908 5909 5909 5910 5912 5912 5913 5914 5915 5915 5916 5916 5917 5917 5918 5919 5920 5920 5921 5922 5922 5923 5923 5924 5925 5926 5927 5927 5927 5928 5928 5928 5929 5929 5930 5930 5931 5931 5931 5931 5931 5931 5932 5932 5932 5933 5933 5933
5876 5879 5881 5882 5882 5883 5884 5886 5887 5888 5887 5885 5885 5885 5885 5886 5886 5887 5888 5889 5890 5890 5891 5891 5890 5890 5890 5890 5891 5892 5892 5893 5894 5896 5898 5899 5899 5900 5902 5902 5904 5906 5905 5903 5904 5906 5907 5907 5908 5908 5908 5908 5909 5910 5911 5912 5913 5914 5914 5915 5915 5916 5917 5917 5918 5919 5920 5921 5922 5922 5922 5923 5924 5924 5925 5926 5926 5927 5927 5927 5928 5928 5929 5930 5930 5930 5930 5931 5931 5931 5931 5931 5932 5932 5932 5932 5933
5875 5877 5878 5880 5882 5883 5884 5885 5885 5885 5884 5883 5884 5883 5882 5882 5882 5883 5885 5886 5887 5889 5890 5890 5890 5890 5890 5890 5889 5889 5889 5890 5892 5892 5894 5896 5897 5899 5900 5901 5902 5904 5905 5903 5903 5905 5906 5907 5907 5908 5908 5908 5908 5909 5910 5911 5912 5912 5913 5914 5914 5915 5916 5917 5917 5918 5919 5920 5921 5921 5922 5923 5923 5924 5924 5925 5925 5926 5926 5927 5927 5928 5929 5929 5930 5930 5930 5930 5930 5930 5931 5931 5931 5931 5932 5932 5932
5874 5875 5876 5878 5880 5881 5882 5883 5883 5883 5882 5882 5882 5881 5880 5880 5880 5881 5882 5885 5887 5888 5889 5890 5891 5891 5891 5891 5890 5889 5887 5887 5888 5888 5890 5893 5896 5898 5900 5900 5900 5903 5904 5902 5901 5903 5905 5906 5907 5907 5907 5907 5907 5908 5909 5910 5910 5911 5912 5912 5913 5914 5914 5915 5916 5917 5918 5919 5920 5920 5921 5922 5922 5923 5923 5924 5925 5925 5926 5926 5927 5928 5928 5929 5929 5930 5930 5930 5930 5930 5931 5931 5931 5931 5931 5932 5932
5874 5874 5875 5876 5878 5879 5881 5881 5881 5881 5881 5881 5880 5879 5879 5879 5879 5880 5883 5885 5886 5887 5888 5888 5889 5889 5890 5890 5891 5891 5890 5889 5887 5887 5889 5892 5894 5896 5897 5899 5899 5901 5903 5901 5900 5902 5904 5905 5905 5906 5907 5907 5906 5906 5907 5908 5909 5910 5910 5911 5912 5913 5913 5914 5915 5916 5917 5918 5919 5919 5920 5921 5921 5922 5923 5923 5924 5924 5925 5926 5926 5927 5928 5928 5929 5929 5929 5930 5930 5930 5930 5931 5931 5931 5931 5932 5932
5874 5874 5875 5875 5876 5877 5879 5879 5878 5878 5879 5879 5878 5878 5878 5879 5880 5882 5883 5884 5885 5885 5885 5885 5885 5885 5886 5886 5887 5888 5889 5889 5888 5888 5889 5890 5891 5893 5894 5895 5897 5899 5900 5900 5900 5901 5903 5904 5905 5905 5906 5906 5906 5906 5906 5907 5908 5908 5909 5910 5911 5912 5912 5913 5914 5915 5916 5917 5918 5918 5919 5920 5920 5921 5922 5922 5923 5924 5924 5925 5926 5926 5927 5927 5928 5928 5929 5929 5929 5930 5930 5930 5930 5930 5931 5931 5931
5874 5874 5875 5875 5875 5876 5877 5877 5876 5876 5877 5876 5876 5876 5877 5877 5879 5880 5881 5882 5882 5882 5881 5881 5881 5882 5882 5883 5884 5885 5885 5886 5885 5885 5886 5886 5887 5889 5891 5892 5894 5896 5898 5899 5899 5900 5901 5902 5903 5903 5903 5904 5906 5906 5907 5907 5908 5909 5909 5910 5910 5911 5912 5912 5913 5914 5915 5916 5916 5917 5918 5919 5919 5920 5921 5921 5922 5923 5923 5924 5925 5925 5926 5926 5927 5927 5928 5928 5929 5929 5930 5930 5930 5930 5930 5930 5931
5872 5873 5874 5874 5874 5875 5876 5875 5874 5874 5874 5874 5873 5874 5875 5875 5876 5877 5879 5879 5880 5880 5879 5879 5879 5880 5881 5882 5883 5883 5883 5883 5883 5882 5883 5884 5884 5885 5886 5888 5889 5891 5894 5896 5897 5898 5899 5900 5900 5901 5901 5902 5904 5906 5906 5907 5908 5909 5910 5910 5910 5911 5911 5912 5912 5913 5914 5915 5915 5916 5917 5918 5919 5919 5920 5921 5921 5922 5922 5923 5923 5924 5924 5925 5925 5926 5927 5927 5928 5928 5929 5929 5929 5929 5929 5930 5930
5871 5872 5872 5871 5871 5873 5873 5872 5871 5870 5871 5871 5871 5872 5873 5873 5874 5875 5876 5877 5878 5879 5878 5877 5878 5878 5879 5880 5881 5881 5881 5881 5880 5880 5882 5883 5883 5883 5884 5885 5886 5887 5889 5892 5894 5896 5897 5897 5898 5899 5900 5901 5903 5904 5905 5906 5906 5907 5909 5910 5910 5910 5911 5911 5912 5913 5914 5914 5915 5916 5917 5918 5919 5919 5920 5921 5921 5922 5922 5922 5923 5923 5923 5924 5924 5925 5925 5926 5926 5927 5927 5928 5928 5928 5929 5929 5930
5870 5869 5869 5868 5869 5871 5871 5870 5869 5868 5868 5869 5870 5870 5871 5872 5872 5873 5874 5876 5877 5877 5876 5876 5876 5876 5877 5878 5879 5879 5879 5878 5878 5878 5879 5880 5881 5882 5883 5884 5884 5885 5887 5889 5891 5893 5894 5895 5896 5897 5898 5899 5901 5902 5903 5904 5905 5906 5907 5908 5909 5910 5910 5911 5912 5912 5913 5914 5915 5916 5917 5918 5918 5919 5920 5921 5921 5921 5922 5922 5922 5922 5923 5923 5923 5924 5924 5925 5925 5926 5927 5927 5927 5927 5928 5928 5929
5868 5867 5866 5866 5869 5871 5871 5869 5868 5867 5867 5867 5868 5869 5869 5870 5871 5872 5872 5874 5875 5874 5874 5875 5875 5875 5875 5875 5876 5877 5877 5876 5876 5875 5876 5878 5879 5881 5882 5883 5883 5884 5886 5887 5889 5891 5892 5894 5895 5897 5898 5898 5899 5899 5900 5902 5904 5905 5906 5907 5908 5908 5909 5909 5910 5911 5911 5912 5913 5914 5915 5916 5917 5918 5919 5920 5920 5921 5921 5922 5922 5922 5922 5923 5923 5923 5923 5923 5924 5925 5925 5926 5926 5927 5927 5927 5928